STARLINK-34434, 64422

Orbit data source: Space-Track

STARLINK-34434, 64422 is a payload satellite owned by SpaceX/Seattle (US) in LEO that was launched on Tue, 17 Jun 2025 UTC via an FALCON 9 launch vehicle from the Air Force Western Test Range (AFWTR). Payload-class satellites include a variety of spacecraft equipped with specific instruments for various scientific and technological missions. These include communications satellites like Starlink; space stations such as the ISS; scientific satellites like the Hubble; Earth observation satellites from companies like Planet Labs, Umbra, and HawkEye 360; GPS; miniature CubeSats for education and research; and military/defense satellites.

Loading next visibility...
Identifier
64422, 2025-129L
Orbit
LEO
Country
Flag of USUS
Related business
Manufacturer
SpaceX/Seattle
Mission
Operational Commercial Communications
Bus & Motor
STARLINK V2MO, Unknown motor
Mass
575 kg wet, ~530 kg dry
Launch date (UTC)
2025-06-17 (1 year ago)
Launch vehicle
FALCON 9
Launch site
Air Force Western Test Range (AFWTR)
Object type
Payload
Rocket body
Debris
Shape & HBR
Box + 2 Pan, 17.7 m
Radar Cross Section
36.964 m², Large (>1 m²)

Expand to show TLE details & history
Last TLE update: 10 hours ago

TLE from 10 hours ago
0 STARLINK-34434
1 64422U 25129L   26171.43831934 -.00000341  00000-0 -20739-4 0  9994
2 64422  70.0006 175.5667 0004017 265.5717  94.4983 14.98327805 56673
Epoch: 2026-06-20T10:31Z
TLE epoch observation values (Epoch: 2026-06-20T10:31:10.790Z)
Latitude
-0.00007°
Longitude
109.11878°
Altitude
574.707 km
Speed
7.574 km/s
True Right ascension
11h 42m 16s
True Declination
0° 00' 00"
Sunlit
Object was in daylight at epoch
Visualization orbit readout
Latitude
Unknown
Longitude
Unknown
Altitude
Unknown
Speed
Unknown
Apparent Right ascension
Unknown
Apparent Declination
Unknown
Sunlit
N/A
Visualization observer readout
Local Sidereal Time
07:20:17
Azimuth
Unknown
Elevation
Unknown
Doppler factor
Unknown
Orbital elements
Apogee altitude
572.802 km
Perigee altitude
567.22 km
Semi-major axis
6,948.148 km
Eccentricity
0.0004
Inclination
70.0006°
RAAN
175.5667°
Arg. of periapsis
265.5717°
True anomaly
94.54419°
Mean anomaly
94.4983°
Eccentric anomaly
94.52124°
Mean motion
3.74748 °/min
Orbital period
96.06 mins
BSTAR
-0.000020739
Loading maneuver chart data...
Computing Atmospheric mass density...
Loading historical data...
Loading historical data...
Loading historical data...
Loading historical data...
Loading historical data...
Loading historical data...
Loading historical data...

Documentation

Showing up to 5 results
|